Location: Alafon
(8.4500°N, 4.2333°E)
Time: 02:13:30
(UTC+00:00)

deb Explorer IX - Pass Details

Date: 31 July 2021
Orbit: 545 x 1092 km, 38.8° (Epoch: 16 September)

Event Time Altitude Azimuth Distance (km) Brightness Sun altitude
Rises 10:35:34 0° 247° (WSW) 2,702 ? 69.6°
Reaches altitude 10° 10:37:53 10° 257° (WSW) 1,834 ? 70.1°
Maximum altitude 10:41:42 34° 323° (NW) 962 ? 70.9°
Drops below altitude 10° 10:45:53 10° 29° (NNE) 2,012 ? 71.8°
Sets 10:48:33 0° 38° (NE) 3,008 ? 72.3°
